Location: Bílinka
(49.3579°N, 14.3767°E)
Time: 01:03:33
(UTC+00:00)

In-Cosmos 22 Rocket - Pass Details

Date: 28 January 2023
Orbit: 789 x 888 km, 81.2° (Epoch: 31 March)

Event Time Altitude Azimuth Distance (km) Brightness Sun altitude
Rises 18:21:00 0° 186° (S) 3,446 7.4 -24.2°
Reaches altitude 10° 18:23:24 10° 185° (S) 2,523 6.7 -24.6°
Maximum altitude 18:29:10 79° 100° (E) 906 4.1 -25.6°
Enters shadow 18:33:04 22° 16° (NNE) 1,844 5.8 -26.2°
Exits shadow 18:36:36 - 14° (NNE) 3,169 7.1 -26.8°
Sets 18:37:30 0° 13° (NNE) 3,509 7.3 -26.9°
